Regional Weather Roundup
Issued by NWS

Home | Current Version | Previous Version | Graphics & Text | Print | Product List | Glossary Off
Versions: 1 2 3 4 5 6 7 8 9 10 11 12 13 14 15 16 17 18 19 20 21 22 23 24 25 26 27 28 29 30 31 32 33 34 35 36 37 38 39 40 41 42 43 44 45 46 47 48 49 50

000
ASUS43 KMKX 250020
RWRWI

WISCONSIN REGIONAL WEATHER ROUNDUP
NATIONAL WEATHER SERVICE MILWAUKEE/SULLIVAN WI
600 PM CST SAT FEB 24 2018

NOTE: "FAIR" INDICATES FEW OR NO CLOUDS BELOW 12,000 FEET WITH NO
SIGNIFICANT WEATHER AND/OR OBSTRUCTIONS TO VISIBILITY.

WIZ001-002-006>008-014>016-023>028-250100-
NORTHWEST WISCONSIN

CITY           SKY/WX    TMP DP  RH WIND       PRES   REMARKS
SUPERIOR ARPT  FLURRIES  24  22  90 NE16G28   29.76F WCI  11
6HR MIN TEMP:  20; 6HR MAX TEMP:  25;

ASHLAND        CLOUDY    22  18  85 NE15      29.81F WCI   9
6HR MIN TEMP:  22; 6HR MAX TEMP:  28;

HAYWARD        LGT SNOW  30  27  88 NE12      29.68F FOG     WCI  20
6HR MIN TEMP:  23; 6HR MAX TEMP:  34; 6HR PCP:  0.04;

SIREN          LGT SNOW  29  27  93 E8G16     29.67F WCI  21
6HR MIN TEMP:  27; 6HR MAX TEMP:  32;

CUMBERLAND     LGT SNOW  30  28  93 E15       29.61F WCI  19
RICE LAKE      CLOUDY    31  28  90 E18G25    29.62F WCI  19
6HR MIN TEMP:  23; 6HR MAX TEMP:  32;

CHETEK         CLOUDY    31  27  86 E10G21    29.63F WCI  22
6HR MIN TEMP:  24; 6HR MAX TEMP:  33;

LADYSMITH      CLOUDY    33  25  71 E15G23    29.66F WCI  23
EAU CLAIRE     MIX PCPN  32  26  78 E15G29    29.62F WCI  22
6HR MIN TEMP:  26; 6HR MAX TEMP:  33; 6HR PCP: TRACE;

MENOMONIE      LGT SNOW  33  28  83 E13G25    29.63F WCI  23
6HR MIN TEMP:  24; 6HR MAX TEMP:  33;

NEW RICHMOND   LGT SNOW  30  27  86 E3        29.66R
6HR MIN TEMP:  24; 6HR MAX TEMP:  30;

OSCEOLA        LGT SNOW  30  30 100 CALM      29.70R
6HR MIN TEMP:  28; 6HR MAX TEMP:  30;

$$

WIZ003>005-009-010-017-018-250100-
NORTH CENTRAL WISCONSIN

CITY           SKY/WX    TMP DP  RH WIND       PRES   REMARKS
MANITOWISH WTR CLOUDY    32  22  67 E9G18     29.77F WCI  24
6HR MIN TEMP:  25; 6HR MAX TEMP:  33;

ARBOR VITAE    CLOUDY    34  25  69 E7G16     29.76F WCI  28
6HR MIN TEMP:  32; 6HR MAX TEMP:  37;

WOODRUFF       CLOUDY    34  25  69 E7G16     29.76F WCI  28
6HR MIN TEMP:  32; 6HR MAX TEMP:  37;

RHINELANDER    CLOUDY    31  23  72 E17       29.78F WCI  19
6HR MIN TEMP:  29; 6HR MAX TEMP:  35;

EAGLE RIVER    CLOUDY    31  20  64 E14G20    29.76F WCI  21
6HR MIN TEMP:  31; 6HR MAX TEMP:  35;

LAND O LAKES   CLOUDY    32  21  64 E13G18    29.80F WCI  22
6HR MIN TEMP:  29; 6HR MAX TEMP:  36;

PHILLIPS       CLOUDY    32  23  71 E13       29.68F WCI  22
6HR MIN TEMP:  27; 6HR MAX TEMP:  34;

TOMAHAWK       CLOUDY    31  23  73 E8        29.76F WCI  23
6HR MIN TEMP:  31; 6HR MAX TEMP:  35;

MEDFORD        CLOUDY    31  23  74 E15G28    29.70F WCI  20
6HR MIN TEMP:  27; 6HR MAX TEMP:  32;

MERRILL        CLOUDY    31  24  75 SE16G25   29.75F WCI  20
6HR MIN TEMP:  31; 6HR MAX TEMP:  36;

$$

WIZ029-030-035-036-043>047-250100-
CENTRAL WISCONSIN

CITY           SKY/WX    TMP DP  RH WIND       PRES   REMARKS
WAUSAU         CLOUDY    31  24  75 E20G31    29.75F WCI  19
6HR MIN TEMP:  31; 6HR MAX TEMP:  34;

MOSINEE        CLOUDY    30  27  86 E15G26    29.77F WCI  19
MARSHFIELD     FRZ RAIN  31  28  89 E20G28    29.68F FOG     WCI  19
6HR MIN TEMP:  29; 6HR MAX TEMP:  33; 6HR PCP: TRACE;

STEVENS POINT  CLOUDY    30  27  86 E20G26    29.77F WCI  18
6HR MIN TEMP:  30; 6HR MAX TEMP:  33;

WAUPACA        CLOUDY    34  28  76 E14       29.82F WCI  25
6HR MIN TEMP:  34; 6HR MAX TEMP:  39;

WAUTOMA        FRZ RAIN  32  28  85 E14G22    29.77F WCI  22
6HR MIN TEMP:  32; 6HR MAX TEMP:  35;

WISC RAPIDS    FRZ RAIN  32  27  81 E16G25    29.71F WCI  21
6HR MIN TEMP:  32; 6HR MAX TEMP:  35; 6HR PCP: TRACE;

CAMP DOUGLAS   FRZ RAIN  32  32 100 E15       29.66F FOG     WCI  22
6HR MIN TEMP:  32; 6HR MAX TEMP:  36; 6HR PCP: TRACE;

$$

WIZ011>013-019>022-031-037>040-048>050-250100-
NORTHEAST WISCONSIN

CITY           SKY/WX    TMP DP  RH WIND       PRES   REMARKS
ANTIGO         CLOUDY    28  24  83 E20       29.79F WCI  15
6HR MIN TEMP:  28; 6HR MAX TEMP:  33;

SHAWANO        CLOUDY    33  26  78 E13       29.84F WCI  23
6HR MIN TEMP:  33; 6HR MAX TEMP:  40;

OCONTO         CLOUDY    31  26  80 NE13G18   29.87F WCI  21
6HR MIN TEMP:  31; 6HR MAX TEMP:  36;

STURGEON BAY   CLOUDY    32  27  81 NE13G20   29.89F WCI  22
6HR MIN TEMP:  32; 6HR MAX TEMP:  35;

GREEN BAY      CLOUDY    33  25  72 E12       29.86F WCI  24
6HR MIN TEMP:  32; 6HR MAX TEMP:  38;

MANITOWOC      CLOUDY    33  29  85 NE12      29.86F WCI  24
6HR MIN TEMP:  33; 6HR MAX TEMP:  35;

APPLETON       CLOUDY    32  25  74 E13G20    29.80F WCI  22
CLINTONVILLE   CLOUDY    32  25  74 E10G17    29.83F WCI  24
6HR MIN TEMP:  32; 6HR MAX TEMP:  38;

OSHKOSH        CLOUDY    33  27  78 E12       29.80F WCI  24
6HR MIN TEMP:  33; 6HR MAX TEMP:  37;

$$

WIZ032>034-041-042-053>061-250100-
SOUTHWEST WISCONSIN

CITY           SKY/WX    TMP DP  RH WIND       PRES   REMARKS
LA CROSSE      RAIN      34  32  92 SE7       29.66F FOG     WCI  28
6HR MIN TEMP:  34; 6HR MAX TEMP:  37; 6HR PCP:  0.04;

SPARTA         MIX PCPN  32  31  96 E17G23    29.66F WCI  21
6HR MIN TEMP:  32; 6HR MAX TEMP:  35;

VIROQUA        CLOUDY    32  32 100 E14       29.62F WCI  22
6HR MIN TEMP:  32; 6HR MAX TEMP:  33;

BOSCOBEL       LGT RAIN  36  34  92 VRB3      29.67F FOG
6HR MIN TEMP:  35; 6HR MAX TEMP:  38; 6HR PCP:  0.03;

PRAIRIE DU CHI DRIZZLE   34  33  95 E10       29.64F WCI  26
6HR MIN TEMP:  33; 6HR MAX TEMP:  35; 6HR PCP:  0.05;

PLATTEVILLE    CLOUDY    35  35 100 E17G23    29.65F WCI  24
6HR MIN TEMP:  32; 6HR MAX TEMP:  35; 6HR PCP:  0.01;

$$

WIZ056-057-062-063-064-067-068-250100-
SOUTH CENTRAL WISCONSIN

CITY           SKY/WX    TMP DP  RH WIND       PRES   REMARKS
REEDSBURG      RAIN      32  32 100 E12       29.68F WCI  23
6HR MIN TEMP:  32; 6HR MAX TEMP:  35; 6HR PCP:  0.01;

BARABOO/DELLS  MIX PCPN  32  31  96 E13G21    29.70F WCI  22
6HR MIN TEMP:  32; 6HR MAX TEMP:  35;

LONE ROCK      LGT RAIN  34  33  96 E20G29    29.68F FOG     WCI  23
6HR MIN TEMP:  33; 6HR MAX TEMP:  36; 6HR PCP: TRACE;

MINERAL POINT  CLOUDY    34  34 100 E15G22    29.66F FOG     WCI  24
MADISON        DRZL/FOG  34  32  92 E17G24    29.72F VSB 1   WCI  23
6HR MIN TEMP:  33; 6HR MAX TEMP:  36; 6HR PCP:  0.02;

MIDDLETON      CLOUDY    35  34  96 E14G22    29.71F WCI  25
6HR MIN TEMP:  34; 6HR MAX TEMP:  37; 6HR PCP:  0.01;

WATERTOWN      LGT RAIN  34  34 100 E16G23    29.74F WCI  24
6HR MIN TEMP:  34; 6HR MAX TEMP:  37;

MONROE         LGT RAIN  34  34 100 E14G21    29.67F WCI  24
JANESVILLE     CLOUDY    37  37 100 E16       29.72F FOG     WCI  28
$$

WIZ051-052-058>065-066-070>072-250100-
SOUTHEAST WISCONSIN

CITY           SKY/WX    TMP DP  RH WIND       PRES   REMARKS
MILWAUKEE      LGT RAIN  37  35  92 E16G28    29.78F FOG     WCI  28
6HR MIN TEMP:  36; 6HR MAX TEMP:  38;

WAUKESHA       CLOUDY    34  32  93 E13G18    29.76F FOG     WCI  25
MILWAUKEE/TIMM DRIZZLE   36  30  80 E12G17    29.81F WCI  27
RACINE         CLOUDY    37  36  96 SE14      29.79F FOG     WCI  28
6HR MIN TEMP:  36; 6HR MAX TEMP:  38; 6HR PCP: TRACE;

BURLINGTON     CLOUDY    36  34  92 E16G22    29.75F FOG     WCI  27
6HR MIN TEMP:  35; 6HR MAX TEMP:  36;

KENOSHA        CLOUDY    38  35  89 E20G33    29.76F FOG     WCI  28
6HR MIN TEMP:  36; 6HR MAX TEMP:  38; 6HR PCP: TRACE;

FOND DU LAC    CLOUDY    35  27  72 E14       29.80F WCI  26
6HR MIN TEMP:  35; 6HR MAX TEMP:  38;

SHEBOYGAN      CLOUDY    33  31  92 E15       29.83F WCI  23
6HR MIN TEMP:  33; 6HR MAX TEMP:  36;

WEST BEND      CLOUDY    34  32  93 E12G17    29.80F WCI  25
JUNEAU         LGT RAIN  34  31  89 E17G26    29.76F WCI  23
6HR MIN TEMP:  33; 6HR MAX TEMP:  36;

$$

LSZ147-162-250100-
LAKE SUPERIOR

STATION/POSITION TIME  TEMP    WIND        PRES    WAVE
                       AIR SEA DIR/SP/G            HT/PER
                 (UTC) (F)     (DEG/KT/KT) (MB)    (FT/S)
DEVILS ISLAND    0000   24      70/ 21/ 26 1012.0F
SAXON HARBOR     2340   23      40/  7/  9 1010.2F
$$

LMZ867-665-643>646-250100-
LAKE MICHIGAN

STATION/POSITION TIME  TEMP    WIND        PRES    WAVE
                       AIR SEA DIR/SP/G            HT/PER




USA.gov is the U.S. government's official web portal to all federal, state and local government web resources and services.